Regional Weather Roundup
Issued by NWS

Home | Current Version | Previous Version | Graphics & Text | Print | Product List | Glossary On
Versions: 1 2 3 4 5 6 7 8 9 10 11 12 13 14 15 16 17 18 19 20 21 22 23 24 25 26 27 28 29 30 31 32 33 34 35 36 37 38 39 40 41 42 43 44 45 46 47 48 49 50
000
ASUS43 KLSX 260807
RWRMO

WEATHER SUMMARY FOR MISSOURI
NATIONAL WEATHER SERVICE SPRINGFIELD MO
200 AM CST WED NOV 26 2014

NOTE: "FAIR" INDICATES FEW OR NO CLOUDS BELOW 12,000 FEET WITH NO
       SIGNIFICANT WEATHER AND/OR OBSTRUCTIONS TO VISIBILITY.
       CURRENT SKY AND/OR WEATHER CONDITIONS ARE NOT AVAILABLE FOR
       CHILLICOTHE AND FARMINGTON.

MOZ001>031-035>038-043-044-053-054-260900-
...NORTHERN AND WESTERN MISSOURI...

CITY           SKY/WX    TMP DP  RH WIND       PRES   REMARKS
KANSAS CTY INT CLOUDY    39  22  50 S14       29.92F
KANSAS C DTWN  CLOUDY    40  22  48 S8        29.95F
LEE`S SUMMIT   CLOUDY    38  21  50 S12       29.95F
ST JOSEPH      CLOUDY    39  24  55 SE10      29.92F
CHILLICOTHE      N/A     34  21  59 S5        30.00F WCI  30
KIRKSVILLE     MOCLDY    28  21  75 SE8       30.01F WCI  20

$$
MOZ066>068-077>081-088>096-101>105-260900-
...SOUTHWEST MISSOURI...

CITY           SKY/WX    TMP DP  RH WIND       PRES   REMARKS
SPRINGFIELD    CLEAR     30  21  69 SE10      30.00F WCI  21
JOPLIN         MOCLDY    37  22  54 S12       30.00F WCI  29

$$
MOZ032>034-039>042-045>050-055>058-069>072-260900-
...CENTRAL MISSOURI...

CITY           SKY/WX    TMP DP  RH WIND       PRES   REMARKS
COLUMBIA       PTCLDY    27  18  69 SE8       30.04F WCI  19
JEFFERSON CITY PTCLDY    23  19  85 SE7       30.06F WCI  15
ROLLA          MOCLDY    28  18  66 S7        30.04F WCI  21
SEDALIA        MOCLDY    34  21  59 S9        30.00F WCI  27
WHITEMAN AFB   MOCLDY    34  22  59 S8        29.97F WCI  28
WARRENSBURG    MOCLDY    34  23  64 SE7       29.97F WCI  28
OSAGE BEACH    PTCLDY    27  18  69 SE7       30.03F WCI  19

$$
MOZ051-052-059>065-260900-
...EAST CENTRAL MISSOURI...

CITY           SKY/WX    TMP DP  RH WIND       PRES   REMARKS
ST LOUIS INTL  MOCLDY    27  22  81 E8        30.11F WCI  19
SPIRIT OF STL  CLEAR     24  21  88 CALM      30.10F
ST CHARLES     CLEAR     28  26  92 E6        30.11F WCI  22

$$
MOZ072>076-082>087-097>100-106>115-260900-
...SOUTH CENTRAL AND SOUTHEAST MISSOURI...

CITY           SKY/WX    TMP DP  RH WIND       PRES   REMARKS
CAPE GIRARDEAU CLEAR     24  22  91 E6        30.16S WCI  17
FARMINGTON     CLEAR     23  21  93 CALM      30.10S
POPLAR BLUFF   CLEAR     25  21  85 CALM      30.13F
WEST PLAINS    PTCLDY    25  20  81 SE3       30.08F

$$



USA.gov is the U.S. government's official web portal to all federal, state and local government web resources and services.